Wind_Speed
13 13 13 12 12 13 14 15 15 16 17 18 18 18 18 17 17 16 16 15 15 15 15 15 15 15 15 16 16 16 16 14 13 13 13 13 12 12 14 14 13 13 13 11 11 12 12 11 10 10 11 11 12 12 12 12 13 13 13 14 14 14 14
12 12 11 11 11 12 13 15 16 17 18 18 18 18 19 19 18 18 17 17 17 16 16 16 16 16 16 16 16 16 16 16 16 15 14 13 13 13 14 14 13 12 13 13 12 13 12 11 10 10 11 11 12 12 12 12 12 13 14 14 15 15 15
10 9 9 9 10 12 13 15 16 17 18 18 18 19 19 19 19 18 18 18 17 17 16 16 16 15 15 16 16 16 16 16 16 16 15 14 14 14 13 13 13 13 13 12 12 12 12 12 11 11 11 12 12 12 12 12 13 13 14 15 15 15 15
9 8 9 10 11 12 13 14 15 16 17 17 17 18 18 17 17 17 17 17 17 17 17 16 16 16 15 15 16 15 15 15 15 15 14 14 13 13 13 14 14 14 13 13 12 12 12 12 12 12 12 12 12 13 13 13 14 14 14 15 15 15 15
9 9 10 11 12 13 13 14 15 16 17 16 16 16 16 16 16 17 17 17 17 17 16 16 16 15 15 15 15 14 14 14 14 14 14 14 13 13 13 14 14 14 14 13 12 12 13 12 12 13 12 13 13 13 14 14 14 15 15 15 15 15 15
10 11 11 12 12 13 14 15 17 18 18 18 18 18 17 17 17 17 17 17 17 16 15 15 15 15 15 15 14 13 13 13 14 14 14 14 14 15 15 14 14 15 14 13 13 13 13 12 13 14 13 14 14 14 14 14 14 15 15 15 15 15 14
12 12 11 12 12 13 15 17 19 20 20 21 20 20 19 18 17 17 17 17 16 15 15 15 14 14 14 14 14 13 12 13 14 14 15 15 15 15 15 14 13 14 14 13 14 14 14 14 14 15 14 15 15 14 14 14 14 14 14 15 14 14 14
13 12 11 12 12 14 16 18 20 21 21 21 20 20 19 18 17 17 17 17 16 15 15 14 13 13 13 13 13 13 12 13 14 14 15 15 14 14 14 13 12 12 13 13 13 14 15 15 14 15 15 15 15 14 14 14 14 14 14 14 14 14 14
14 13 12 12 13 14 16 18 19 20 19 18 17 17 17 17 16 16 16 16 15 15 15 14 13 12 12 12 12 11 11 12 13 14 14 14 14 13 12 12 12 11 11 12 12 14 15 14 14 15 15 15 14 14 14 14 14 14 14 14 14 15 15
14 13 13 13 13 14 15 16 16 16 16 15 15 16 16 16 16 15 15 15 15 15 15 15 14 13 12 12 12 12 11 11 12 13 14 14 13 12 11 12 12 12 12 13 13 14 15 15 15 15 15 14 14 14 14 14 14 14 15 15 15 15 16
15 14 14 14 13 12 12 12 12 12 12 12 13 14 15 15 15 14 14 14 14 15 15 15 15 15 14 13 13 13 12 12 12 13 14 14 14 13 14 15 15 16 16 16 16 15 16 16 17 16 15 14 14 14 14 14 14 15 15 15 16 16 16
15 15 15 15 13 12 11 11 10 10 11 11 12 13 14 14 14 14 14 13 13 14 14 15 15 15 15 15 15 15 15 14 14 15 15 15 16 16 16 17 17 18 18 18 18 17 16 17 18 17 16 16 15 15 15 15 15 15 16 16 16 16 17
15 16 15 14 14 13 13 12 11 11 12 12 13 13 13 13 14 13 12 11 10 10 11 12 14 15 15 16 16 15 15 14 14 14 14 14 14 14 15 15 16 16 17 17 17 17 17 18 18 17 17 17 16 16 16 16 16 16 16 16 17 17 17
16 17 16 15 15 16 15 14 13 12 12 12 12 11 12 13 14 13 12 10 9 8 8 10 12 13 14 15 14 14 13 12 11 11 11 11 11 11 12 13 14 14 15 15 15 15 16 17 17 16 16 16 16 16 16 16 16 16 16 16 17 17 18
19 19 19 18 18 18 17 16 14 13 12 12 11 11 12 13 14 14 13 12 11 10 10 11 12 13 13 14 13 13 12 11 10 10 10 10 10 11 12 13 13 13 13 13 14 14 14 14 14 14 14 14 15 15 15 15 16 16 16 16 17 18 18
22 22 21 20 20 19 18 16 15 14 13 13 12 12 12 13 14 14 14 15 15 14 14 14 14 14 14 14 14 14 13 12 11 11 11 11 11 12 13 13 13 13 13 12 13 13 13 13 13 13 13 14 14 15 15 16 16 16 16 17 17 18 18
22 22 23 22 21 19 18 17 17 17 16 15 14 13 14 14 14 14 15 15 15 15 15 16 16 16 16 16 16 15 15 14 13 12 12 12 13 14 14 14 14 14 13 13 13 14 14 14 14 14 14 14 15 15 15 16 16 17 17 18 18 19 19
20 20 22 23 21 19 18 18 18 18 18 17 17 16 16 16 16 15 15 14 15 15 16 17 18 18 18 18 18 17 17 16 14 13 14 14 15 15 15 15 15 15 15 14 15 15 15 14 14 15 15 16 16 16 16 17 18 18 19 20 20 20 20
19 19 20 21 20 20 19 19 19 19 18 18 18 18 17 17 17 16 15 15 15 15 16 17 18 19 19 19 19 18 18 17 15 15 15 16 16 16 17 17 17 17 16 16 16 15 15 15 15 16 17 17 17 17 18 19 20 20 21 21 22 22 21
21 19 19 19 20 20 20 20 20 19 19 18 18 18 17 17 17 17 16 16 15 16 17 17 18 18 19 19 19 19 18 17 16 16 16 17 17 18 18 19 19 19 18 17 17 16 16 16 17 17 18 18 18 19 20 20 21 22 22 23 23 22 22
23 21 20 19 19 20 20 20 21 21 20 19 19 19 18 18 18 17 16 16 16 16 17 18 18 19 19 19 19 19 18 17 17 17 18 18 19 19 20 20 20 20 19 19 18 18 18 19 19 19 20 20 21 21 21 22 23 23 23 23 23 23 23
22 22 22 21 20 20 20 19 20 21 22 21 20 20 19 19 18 17 17 16 16 17 18 18 19 19 20 20 20 20 19 19 19 19 19 19 20 20 21 21 21 21 21 21 20 20 21 21 21 21 22 22 23 23 23 24 24 24 24 24 24 24 24
21 22 23 23 23 23 22 22 22 22 23 24 22 21 20 19 19 18 17 17 17 18 18 19 20 20 20 20 20 20 20 20 20 20 20 20 21 21 22 22 23 23 23 23 23 23 23 23 23 24 24 24 25 25 25 26 26 26 26 26 26 26 26
24 23 22 23 24 24 23 25 27 25 22 23 23 22 21 20 19 18 17 17 17 18 19 20 21 21 21 21 21 21 21 21 21 21 22 22 22 23 24 24 25 25 25 25 25 25 25 26 26 26 26 26 27 27 28 28 28 28 28 28 28 28 28
23 23 24 25 26 24 20 20 24 24 21 21 23 22 21 19 18 17 17 17 17 18 19 21 22 23 23 23 23 23 23 23 23 24 24 24 25 25 26 27 27 27 27 27 27 27 28 28 28 28 29 29 29 29 30 30 30 30 30 30 31 30 30
23 23 23 24 24 23 20 18 20 22 21 22 23 22 20 18 17 16 16 17 17 17 18 20 22 24 25 25 26 26 26 26 26 26 26 26 27 27 27 28 28 28 28 29 29 30 30 31 31 31 31 31 32 32 33 33 33 34 34 34 34 34 34
26 24 21 19 19 19 19 18 19 20 20 22 23 22 19 17 17 16 16 17 17 18 19 20 22 24 25 27 28 28 28 28 28 28 28 27 28 28 28 29 29 30 30 31 31 32 33 33 34 34 34 34 35 35 36 36 36 37 37 38 38 38 38
25 24 21 19 18 18 18 19 19 20 20 21 23 22 19 18 18 18 18 18 18 19 19 20 22 24 26 27 29 29 29 29 29 29 29 29 29 29 30 31 31 32 32 33 34 35 36 36 37 37 37 37 38 38 39 39 39 39 40 40 41 41 41
24 24 21 19 19 19 19 19 20 20 20 22 24 23 22 21 20 20 20 20 21 21 21 21 22 24 25 27 29 30 31 31 31 31 30 30 30 31 32 32 33 34 35 36 36 37 38 39 40 40 40 40 41 41 42 42 42 43 43 43 44 44 45
26 24 21 20 20 20 20 20 21 21 22 23 24 23 24 23 22 22 22 22 23 23 23 23 24 25 26 28 29 31 32 32 33 32 32 32 32 33 33 34 35 36 37 38 38 40 41 42 43 43 43 44 44 44 45 45 45 46 47 47 48 48 49
27 24 23 22 22 22 22 22 22 23 24 24 24 24 24 24 23 24 24 24 25 26 26 26 26 27 28 29 30 32 34 34 34 34 34 34 35 35 36 37 38 38 39 40 40 42 43 44 45 46 47 47 48 47 47 48 48 48 49 50 51 51 51
27 25 25 23 22 22 21 21 23 24 25 24 24 25 26 26 26 26 25 26 27 28 28 28 28 30 30 31 32 34 35 36 36 36 36 37 37 38 38 39 40 41 42 42 43 43 45 46 48 49 50 51 51 51 51 52 53 52 52 53 53 54 54
26 25 24 23 22 23 22 23 24 25 25 25 26 27 27 28 28 26 25 27 29 30 31 31 31 31 32 33 34 35 36 38 38 39 39 40 41 42 42 43 43 43 44 44 44 45 47 49 50 52 53 54 55 56 56 57 58 58 57 57 57 58 58
23 23 23 22 23 26 27 28 29 29 28 29 29 29 28 29 30 29 29 31 32 32 32 32 32 33 35 36 37 39 40 40 41 43 44 45 45 46 46 46 46 45 46 46 47 49 51 53 54 55 57 58 59 60 61 61 62 63 62 62 62 62 62
28 28 27 27 27 28 28 28 29 30 31 32 34 34 33 33 33 33 33 34 35 35 35 34 33 34 36 38 40 42 43 43 45 46 48 49 50 50 50 50 48 48 49 51 53 54 55 56 57 58 59 60 61 63 64 64 65 66 66 67 67 67 67
33 33 32 31 31 32 32 31 30 31 32 33 35 37 38 39 38 38 37 37 38 38 38 38 37 37 37 37 39 41 42 44 46 47 49 50 50 51 51 51 51 52 54 56 57 57 58 59 60 61 62 63 64 66 67 68 69 69 69 70 70 70 69
35 35 35 34 33 35 36 37 37 37 36 36 37 38 39 40 41 42 43 43 43 43 43 44 44 43 43 42 41 42 44 47 49 50 51 52 53 53 54 55 56 57 59 60 61 62 62 63 63 64 65 66 67 68 69 70 70 71 70 70 70 70 70
Wind_Direction
232 234 239 245 252 259 262 263 262 260 259 260 259 257 252 250 245 240 239 240 242 244 245 245 245 245 245 245 245 245 243 237 237 240 238 238 242 246 250 251 251 257 265 267 266 267 266 266 269 270 266 265 268 272 278 282 285 288 290 290 290 290 292
230 232 238 244 251 257 261 263 264 262 261 259 258 255 251 249 247 245 246 248 250 252 251 249 247 246 246 245 244 244 243 237 234 238 240 237 240 248 253 254 253 255 260 260 259 261 264 266 266 264 263 264 268 273 279 283 285 287 288 288 290 292 296
226 233 242 250 256 260 262 262 263 262 260 257 254 251 249 248 248 250 251 253 254 254 253 250 248 247 247 247 245 243 242 240 239 240 239 239 240 245 251 253 253 254 258 260 258 258 260 263 262 260 262 266 270 275 279 281 282 283 285 287 290 294 298
226 238 247 254 258 260 261 261 261 259 255 251 247 245 246 248 250 253 256 257 256 255 252 249 247 245 244 244 243 242 241 241 243 243 241 241 241 243 247 253 254 252 255 262 266 267 266 264 263 261 262 267 273 277 279 280 280 282 286 290 292 295 295
229 239 245 250 254 257 260 260 257 252 247 242 240 242 249 255 259 261 261 259 256 253 249 245 242 239 238 238 239 240 241 240 241 242 241 239 238 236 238 249 255 251 254 260 262 267 272 269 266 264 265 269 272 275 278 279 281 284 288 290 291 292 292
230 235 240 244 250 254 257 257 252 247 243 241 242 248 256 261 262 261 259 256 252 247 243 240 237 234 232 233 234 236 239 240 239 238 238 237 237 236 236 243 250 251 255 257 255 264 273 272 268 267 267 270 272 274 277 279 282 285 288 289 288 289 291
228 231 236 241 246 250 251 251 248 245 244 244 247 253 258 259 256 255 253 250 247 242 240 238 235 232 230 230 230 231 234 237 238 239 238 237 240 243 243 242 244 249 253 252 253 262 268 266 267 270 270 271 273 275 277 280 283 286 286 286 286 287 290
224 224 229 236 241 243 243 243 242 242 242 244 249 254 256 254 250 249 248 246 244 241 239 238 236 232 228 228 227 226 229 233 236 238 239 240 243 247 250 248 247 252 257 256 257 261 263 263 267 270 271 272 274 277 279 281 283 284 284 284 285 287 290
219 220 226 233 237 239 239 239 239 241 243 246 248 249 248 247 246 245 244 244 243 242 241 239 238 235 229 226 224 221 222 225 229 236 239 242 244 245 249 253 252 255 260 262 264 267 268 269 271 272 273 276 278 280 281 282 283 284 284 285 286 289 292
219 221 225 228 232 235 237 240 241 243 246 246 244 241 240 241 242 241 241 242 242 242 242 240 240 238 233 226 222 222 224 222 225 234 240 243 246 247 248 251 253 259 267 270 271 273 275 274 274 275 277 280 281 281 283 284 285 286 287 288 290 293 297
224 225 222 221 223 229 235 239 240 241 242 239 232 230 233 238 241 242 241 242 242 240 240 239 239 238 237 234 230 233 239 236 235 243 249 254 258 258 257 255 255 260 265 269 270 272 275 275 275 276 279 281 281 284 287 288 289 291 292 294 297 299 302
231 227 222 220 224 230 237 242 241 238 235 231 226 224 228 235 240 241 241 239 238 237 236 237 238 238 238 239 240 242 246 247 247 251 256 260 262 263 263 262 262 263 265 267 268 269 271 272 274 277 279 281 284 286 289 290 292 294 295 297 299 300 301
234 229 224 226 231 234 237 240 239 236 233 228 225 225 227 230 229 230 230 228 226 228 231 233 236 237 238 239 241 242 245 247 248 250 253 256 258 260 262 263 265 267 268 269 270 270 272 274 277 280 282 285 287 288 289 290 292 294 294 296 296 296 296
233 229 227 230 235 237 239 239 235 232 229 225 220 217 217 216 213 213 218 223 226 229 233 235 235 235 235 236 237 238 239 241 240 243 247 249 252 257 261 264 267 269 271 272 273 274 275 277 280 282 284 285 286 286 287 289 290 291 291 292 291 291 291
230 227 226 230 235 238 241 242 238 233 229 224 218 211 210 210 209 211 217 225 234 241 244 243 238 234 233 233 234 233 231 232 233 236 240 245 251 257 261 264 267 268 270 271 273 275 277 280 283 285 287 287 288 289 290 291 291 291 290 289 288 289 289
229 226 224 226 231 236 239 241 241 239 235 231 227 222 218 218 218 221 225 230 235 239 240 240 237 235 234 233 232 230 229 230 233 237 243 250 257 262 263 263 265 267 268 269 272 276 280 283 286 287 288 289 289 290 291 291 291 290 289 289 288 289 289
230 228 224 224 226 230 235 237 239 240 239 237 235 233 231 230 232 234 235 236 236 235 233 231 232 233 234 234 234 234 235 235 236 240 249 256 259 260 260 260 261 262 263 265 268 272 275 278 280 281 281 282 284 285 286 286 286 286 286 287 288 288 288
230 228 225 223 223 226 231 234 236 237 239 240 239 238 238 238 240 241 240 239 236 234 231 227 227 230 232 234 236 237 238 237 239 246 253 257 257 257 257 257 257 258 259 261 264 266 267 268 270 271 272 273 275 277 278 279 280 281 282 282 283 283 283
229 228 224 221 219 221 226 230 233 234 235 238 238 237 238 240 242 243 242 240 237 234 232 228 227 229 232 235 237 238 238 238 243 251 256 257 257 256 257 256 256 257 256 258 261 263 263 263 263 264 266 267 269 270 272 274 275 276 277 277 277 277 276
228 228 224 219 217 218 222 226 230 232 233 236 238 238 237 238 240 241 242 242 239 234 232 229 229 231 233 236 238 238 239 241 247 253 256 257 257 257 257 256 255 255 255 256 258 259 260 260 260 261 262 264 266 267 269 271 272 272 272 272 272 272 272
228 228 224 221 220 220 222 225 228 231 232 234 238 241 241 238 237 239 241 242 240 235 231 229 229 231 233 235 237 238 241 245 250 254 256 256 257 257 256 257 256 256 257 257 258 259 259 259 260 261 262 263 265 266 267 268 268 268 268 269 269 269 269
229 229 226 226 228 230 232 232 232 233 233 234 237 240 241 240 237 236 239 241 241 236 230 229 229 230 232 234 236 238 242 246 251 254 255 257 258 259 259 259 259 258 258 259 260 261 261 261 262 263 265 266 267 267 267 267 267 267 267 267 268 268 268
232 233 231 234 237 239 243 244 239 236 234 232 233 234 236 238 237 236 238 241 242 239 234 231 231 232 234 236 239 241 245 248 250 252 254 256 258 259 259 259 258 257 257 257 259 260 262 263 264 265 266 267 268 267 267 266 266 267 268 268 269 269 269
238 239 237 241 242 242 250 249 238 233 232 232 231 231 234 239 241 240 241 243 245 244 241 238 237 238 239 241 243 245 248 249 250 251 252 254 255 256 256 256 255 255 256 257 259 261 263 265 266 268 268 269 269 269 268 267 266 267 268 269 269 269 269
239 240 239 242 241 241 251 249 231 223 227 232 232 231 234 240 244 246 247 248 247 246 245 243 243 243 244 245 246 247 249 251 252 253 254 255 256 257 256 256 256 256 258 260 262 263 266 267 269 269 269 269 269 268 267 266 266 266 267 268 268 268 268
239 239 241 243 240 238 243 242 228 223 227 230 230 229 232 239 247 250 252 253 252 252 250 249 248 246 246 247 248 250 251 252 253 254 254 256 257 258 258 257 257 257 259 261 264 266 268 269 269 270 269 269 269 268 267 265 265 265 265 266 266 267 267
235 232 234 236 234 234 238 239 234 231 232 230 226 226 231 241 248 252 255 258 259 260 258 256 254 251 250 250 250 252 253 254 255 254 255 256 257 258 258 258 258 258 259 261 264 265 267 269 270 270 270 270 270 269 268 267 267 266 266 267 267 269 269
224 220 221 229 235 237 238 240 238 235 233 229 225 225 232 241 246 249 254 257 259 261 261 260 258 257 255 254 254 254 254 255 255 255 255 256 256 257 257 257 258 259 260 263 266 267 268 269 270 270 270 270 270 269 268 268 267 267 268 268 270 271 272
213 214 222 237 244 242 239 238 237 234 230 229 229 232 238 243 246 249 252 253 255 257 259 260 261 261 260 258 257 256 255 254 254 255 256 256 257 257 258 259 260 262 264 268 269 269 270 272 272 272 272 272 271 270 269 268 267 267 267 268 269 270 271
214 220 233 245 248 247 242 236 234 234 234 235 237 240 244 245 248 252 254 254 256 257 258 260 261 263 263 262 260 258 256 254 254 254 255 257 258 259 261 262 264 266 268 271 271 271 272 273 274 274 274 273 272 271 269 268 267 267 268 268 269 271 272
221 228 239 247 248 245 241 237 235 236 238 241 243 245 247 248 250 253 255 256 255 256 256 257 259 261 262 263 261 259 256 255 254 254 255 257 259 261 263 265 267 269 270 272 272 272 273 275 275 276 276 275 275 273 271 269 268 267 268 269 270 272 273
224 232 239 243 243 240 239 238 238 237 239 243 245 245 245 246 249 254 257 257 255 254 255 255 257 259 261 262 261 260 258 257 256 256 257 260 263 265 267 268 269 270 271 271 272 273 275 276 277 277 277 277 277 276 275 274 273 273 273 274 275 276 276
223 229 233 235 234 233 233 234 235 235 237 240 243 244 244 245 246 248 251 254 255 255 255 255 256 259 260 261 262 261 261 260 260 260 262 265 267 268 269 269 270 271 272 272 274 275 277 277 277 278 278 278 278 277 277 277 277 277 277 277 277 278 278
225 230 235 237 236 233 231 231 234 235 236 236 240 242 244 245 244 241 241 247 252 255 257 258 261 263 264 263 263 261 260 260 261 263 265 266 267 267 268 269 269 270 272 273 275 275 276 277 277 278 278 278 278 278 277 277 276 276 276 275 275 276 277
242 244 246 246 242 237 235 235 236 236 236 236 238 241 243 245 246 244 242 245 250 254 258 260 261 261 262 263 262 262 261 262 263 264 265 266 266 267 268 269 269 271 273 275 275 275 276 277 277 277 276 276 276 276 276 275 275 275 275 275 275 276 277
249 250 249 247 244 242 242 242 242 242 241 239 239 241 244 248 250 250 249 249 249 251 254 255 256 256 257 258 259 260 262 263 264 265 265 266 267 268 269 271 272 274 276 276 276 276 277 277 277 276 276 275 275 275 275 275 275 275 275 276 276 275 276
245 247 247 246 245 245 246 247 248 250 249 248 247 247 248 250 252 254 254 254 254 254 254 254 255 256 257 258 260 262 263 264 264 265 265 266 268 270 272 274 274 275 276 276 277 277 277 276 276 276 276 276 275 275 275 275 275 275 275 276 275 275 276
Height
5787 5788 5789 5789 5790 5791 5792 5793 5793 5794 5795 5796 5796 5797 5797 5798 5798 5799 5800 5800 5801 5802 5802 5803 5803 5804 5805 5805 5806 5806 5807 5809 5808 5807 5808 5809 5809 5810 5810 5810 5811 5811 5811 5812 5812 5811 5812 5812 5813 5813 5813 5813 5813 5813 5814 5814 5814 5813 5813 5813 5813 5813 5813
5786 5786 5787 5788 5789 5790 5791 5792 5792 5793 5794 5794 5795 5795 5796 5796 5797 5798 5798 5799 5800 5800 5801 5801 5802 5802 5803 5803 5804 5805 5805 5806 5806 5806 5807 5808 5809 5809 5809 5809 5810 5810 5810 5810 5811 5811 5811 5811 5812 5812 5812 5812 5811 5812 5812 5812 5812 5812 5812 5812 5811 5811 5811
5784 5785 5786 5787 5788 5789 5790 5790 5791 5792 5792 5793 5794 5794 5795 5795 5796 5796 5797 5797 5798 5799 5799 5800 5800 5800 5801 5801 5802 5803 5804 5804 5804 5805 5807 5808 5809 5808 5808 5808 5808 5808 5808 5808 5809 5810 5810 5810 5810 5810 5810 5810 5810 5810 5810 5810 5810 5810 5810 5810 5810 5809 5809
5783 5784 5785 5786 5787 5787 5788 5789 5790 5790 5791 5792 5792 5793 5793 5794 5794 5795 5795 5796 5796 5797 5798 5798 5799 5799 5800 5800 5800 5801 5802 5803 5803 5804 5805 5806 5807 5807 5806 5806 5806 5806 5806 5806 5807 5808 5809 5809 5809 5808 5808 5808 5808 5808 5808 5808 5808 5808 5808 5808 5808 5808 5808
5782 5783 5783 5784 5785 5786 5786 5788 5789 5789 5790 5791 5791 5792 5792 5792 5793 5793 5794 5794 5795 5796 5796 5797 5798 5798 5798 5798 5799 5800 5801 5802 5802 5803 5803 5804 5804 5805 5805 5804 5804 5805 5805 5805 5806 5807 5807 5808 5807 5807 5807 5807 5807 5807 5807 5807 5807 5807 5807 5806 5806 5806 5806
5780 5781 5782 5782 5783 5784 5785 5786 5787 5788 5789 5789 5790 5790 5791 5791 5791 5792 5792 5793 5793 5794 5795 5796 5796 5797 5797 5797 5798 5799 5800 5801 5801 5801 5802 5802 5802 5802 5803 5803 5803 5803 5804 5804 5805 5806 5806 5806 5806 5806 5806 5806 5805 5806 5806 5805 5805 5805 5805 5805 5805 5805 5805
5778 5779 5780 5781 5782 5783 5784 5785 5785 5786 5787 5787 5788 5788 5789 5789 5790 5790 5791 5791 5792 5793 5793 5794 5795 5795 5796 5796 5797 5798 5799 5799 5799 5800 5800 5800 5800 5800 5801 5802 5802 5802 5802 5803 5804 5805 5805 5805 5805 5804 5804 5804 5804 5804 5804 5804 5804 5804 5804 5803 5803 5803 5803
5777 5777 5778 5779 5780 5781 5781 5782 5782 5783 5784 5785 5786 5787 5787 5788 5788 5789 5789 5790 5790 5791 5792 5793 5793 5794 5795 5795 5796 5797 5797 5798 5798 5798 5798 5799 5799 5799 5799 5799 5800 5801 5801 5801 5802 5803 5804 5804 5803 5803 5803 5803 5803 5803 5803 5803 5803 5802 5802 5802 5802 5802 5801
5775 5776 5777 5777 5778 5778 5779 5779 5780 5781 5782 5783 5784 5784 5785 5786 5787 5788 5788 5789 5789 5790 5791 5791 5792 5793 5794 5794 5795 5796 5796 5797 5797 5797 5797 5797 5798 5799 5798 5797 5798 5799 5800 5800 5801 5802 5802 5802 5802 5801 5801 5802 5802 5802 5802 5801 5801 5801 5801 5801 5800 5800 5800
5773 5774 5775 5775 5776 5776 5777 5777 5778 5779 5780 5781 5782 5783 5783 5784 5785 5786 5787 5788 5788 5789 5789 5790 5791 5791 5792 5793 5794 5795 5796 5796 5796 5796 5796 5797 5797 5798 5799 5798 5797 5797 5798 5799 5800 5801 5800 5800 5800 5800 5800 5800 5800 5800 5800 5800 5800 5800 5800 5799 5799 5799 5799
5772 5773 5773 5774 5774 5775 5775 5776 5777 5777 5778 5779 5780 5781 5782 5783 5784 5785 5785 5786 5787 5787 5788 5788 5789 5790 5791 5792 5793 5793 5794 5795 5795 5796 5796 5796 5796 5797 5798 5799 5799 5798 5798 5799 5800 5800 5799 5798 5798 5798 5798 5799 5799 5799 5799 5799 5799 5799 5798 5798 5798 5798 5797
5771 5772 5772 5773 5773 5774 5774 5774 5775 5776 5776 5778 5779 5780 5781 5782 5782 5783 5784 5785 5785 5786 5787 5787 5788 5788 5789 5790 5791 5792 5792 5793 5794 5794 5794 5795 5795 5796 5797 5797 5797 5798 5798 5798 5799 5799 5798 5797 5797 5797 5797 5797 5797 5797 5797 5797 5797 5797 5797 5796 5796 5796 5796
5770 5771 5772 5772 5772 5772 5773 5773 5773 5774 5775 5776 5777 5778 5779 5780 5781 5781 5782 5783 5784 5785 5785 5786 5786 5787 5788 5788 5789 5790 5791 5791 5792 5792 5793 5793 5794 5794 5795 5795 5795 5796 5796 5797 5797 5797 5797 5796 5796 5796 5795 5795 5795 5795 5795 5795 5795 5795 5795 5794 5794 5794 5794
5768 5769 5770 5770 5770 5771 5771 5772 5772 5773 5773 5774 5775 5776 5778 5779 5779 5780 5781 5781 5782 5783 5784 5785 5785 5786 5786 5787 5787 5788 5789 5789 5790 5791 5791 5791 5792 5792 5793 5793 5794 5794 5795 5795 5795 5795 5795 5794 5794 5794 5794 5793 5793 5793 5793 5793 5793 5793 5793 5793 5792 5792 5792
5765 5766 5767 5767 5768 5769 5769 5770 5771 5771 5772 5773 5774 5775 5776 5777 5778 5778 5779 5780 5780 5781 5782 5783 5783 5784 5785 5785 5786 5787 5787 5788 5789 5789 5790 5790 5790 5791 5791 5791 5792 5792 5793 5793 5793 5793 5793 5792 5792 5792 5792 5792 5792 5792 5791 5791 5791 5791 5791 5791 5791 5791 5790
5761 5762 5763 5764 5765 5767 5768 5769 5769 5770 5771 5772 5773 5774 5774 5775 5776 5776 5777 5778 5778 5779 5780 5780 5781 5782 5783 5784 5784 5785 5786 5787 5787 5787 5788 5788 5789 5789 5789 5789 5790 5790 5791 5791 5791 5790 5790 5790 5790 5790 5790 5790 5790 5790 5790 5789 5790 5789 5789 5789 5789 5789 5788
5759 5760 5761 5762 5763 5765 5766 5767 5768 5769 5770 5770 5771 5772 5773 5773 5774 5774 5775 5775 5776 5777 5777 5778 5779 5780 5780 5781 5782 5783 5784 5785 5785 5786 5786 5786 5787 5787 5787 5787 5787 5788 5788 5788 5788 5788 5788 5788 5788 5789 5789 5788 5788 5788 5788 5788 5788 5788 5787 5787 5787 5786 5786
5757 5757 5758 5760 5761 5762 5763 5764 5765 5767 5768 5768 5770 5770 5771 5772 5772 5772 5772 5773 5773 5774 5775 5776 5776 5777 5778 5779 5780 5781 5781 5782 5783 5783 5784 5784 5784 5785 5785 5785 5785 5786 5786 5786 5785 5786 5786 5786 5786 5786 5786 5787 5787 5787 5786 5786 5786 5786 5785 5785 5785 5784 5784
5755 5755 5756 5757 5759 5760 5761 5762 5763 5764 5765 5766 5767 5768 5769 5770 5770 5770 5770 5771 5771 5772 5772 5773 5774 5775 5776 5776 5777 5778 5779 5780 5781 5781 5782 5782 5782 5783 5783 5783 5783 5784 5784 5784 5783 5783 5784 5784 5784 5784 5784 5784 5785 5785 5784 5784 5784 5784 5784 5783 5783 5782 5782
5752 5753 5754 5756 5757 5758 5759 5760 5761 5762 5763 5764 5765 5766 5767 5767 5768 5768 5768 5769 5769 5770 5771 5771 5772 5773 5773 5774 5775 5776 5777 5778 5778 5779 5779 5780 5780 5780 5780 5781 5781 5781 5781 5782 5781 5781 5782 5782 5782 5782 5782 5782 5783 5782 5782 5782 5782 5782 5782 5782 5781 5780 5780
5750 5751 5752 5754 5755 5756 5756 5757 5758 5759 5760 5761 5762 5764 5764 5765 5766 5766 5766 5767 5767 5768 5769 5769 5770 5771 5771 5772 5773 5774 5774 5775 5776 5776 5777 5777 5777 5778 5778 5778 5779 5779 5779 5779 5779 5779 5780 5779 5779 5780 5780 5780 5780 5780 5780 5780 5779 5779 5779 5779 5778 5778 5777
5747 5748 5750 5751 5752 5753 5754 5755 5756 5756 5757 5758 5759 5761 5762 5763 5763 5764 5764 5764 5765 5765 5766 5767 5767 5768 5769 5770 5770 5771 5772 5772 5773 5773 5774 5774 5775 5775 5776 5776 5776 5776 5777 5777 5777 5777 5777 5777 5777 5777 5777 5777 5777 5777 5777 5777 5776 5776 5776 5776 5775 5775 5774
5744 5745 5747 5748 5749 5750 5751 5752 5753 5753 5754 5755 5756 5757 5759 5760 5761 5762 5762 5762 5763 5763 5763 5764 5765 5765 5766 5767 5767 5768 5769 5769 5770 5770 5770 5771 5772 5772 5773 5773 5774 5774 5774 5774 5774 5774 5774 5774 5774 5774 5774 5774 5774 5774 5774 5773 5773 5773 5772 5772 5772 5772 5771
5741 5742 5744 5745 5746 5747 5748 5748 5748 5750 5751 5751 5753 5754 5755 5757 5758 5759 5759 5760 5760 5760 5761 5761 5762 5762 5763 5764 5765 5765 5766 5766 5767 5767 5767 5768 5768 5769 5770 5770 5770 5770 5771 5771 5771 5771 5771 5771 5771 5771 5771 5771 5771 5771 5771 5770 5770 5769 5769 5769 5768 5768 5768
5737 5739 5741 5742 5742 5743 5744 5744 5744 5746 5748 5749 5750 5751 5752 5753 5754 5755 5756 5756 5757 5757 5758 5758 5759 5760 5760 5761 5761 5762 5763 5763 5764 5764 5764 5765 5765 5765 5766 5766 5767 5767 5767 5767 5768 5768 5768 5768 5768 5768 5768 5768 5768 5768 5768 5767 5767 5766 5766 5765 5765 5764 5764
5735 5736 5738 5738 5739 5740 5741 5742 5742 5744 5745 5746 5747 5748 5749 5750 5751 5752 5753 5753 5754 5754 5755 5755 5756 5756 5757 5757 5758 5759 5759 5760 5760 5761 5761 5761 5762 5762 5762 5763 5763 5764 5764 5764 5764 5764 5764 5764 5765 5765 5765 5765 5764 5764 5764 5764 5763 5763 5762 5761 5761 5760 5760
5732 5734 5735 5735 5736 5737 5738 5739 5740 5741 5742 5743 5744 5745 5746 5747 5747 5748 5749 5750 5750 5751 5752 5752 5752 5753 5753 5754 5754 5755 5755 5756 5757 5757 5757 5758 5758 5758 5759 5759 5760 5760 5760 5760 5760 5761 5760 5761 5761 5761 5761 5761 5761 5760 5760 5760 5759 5759 5758 5758 5757 5756 5756
5729 5731 5732 5732 5733 5734 5735 5736 5737 5738 5739 5740 5741 5742 5743 5744 5744 5745 5746 5746 5747 5748 5748 5749 5749 5749 5750 5750 5751 5751 5752 5752 5753 5753 5753 5754 5754 5754 5755 5755 5756 5756 5756 5756 5756 5756 5756 5756 5756 5756 5756 5756 5756 5756 5755 5755 5755 5754 5753 5753 5752 5752 5751
5726 5727 5729 5729 5730 5731 5732 5733 5734 5735 5736 5737 5738 5739 5740 5741 5741 5742 5742 5743 5744 5744 5745 5745 5746 5746 5746 5747 5747 5747 5748 5748 5749 5749 5749 5749 5750 5750 5750 5751 5751 5751 5751 5752 5752 5752 5752 5752 5751 5751 5751 5751 5751 5750 5750 5749 5749 5748 5747 5747 5746 5746 5745
5723 5724 5725 5726 5727 5728 5729 5730 5731 5733 5734 5734 5735 5736 5737 5737 5738 5739 5739 5740 5740 5740 5741 5741 5741 5742 5742 5743 5743 5744 5744 5744 5744 5745 5745 5745 5745 5746 5746 5746 5746 5746 5746 5747 5747 5746 5746 5746 5746 5746 5746 5746 5745 5745 5744 5744 5743 5742 5741 5741 5740 5739 5738
5720 5721 5722 5723 5724 5725 5726 5727 5728 5729 5730 5731 5732 5732 5733 5734 5734 5735 5736 5736 5736 5737 5737 5737 5737 5738 5738 5739 5739 5739 5740 5740 5740 5740 5740 5740 5740 5741 5741 5740 5740 5740 5740 5741 5741 5740 5740 5740 5740 5740 5740 5740 5740 5739 5738 5737 5737 5736 5735 5734 5733 5733 5732
5717 5718 5719 5720 5721 5722 5723 5724 5725 5726 5726 5727 5728 5729 5729 5730 5730 5731 5732 5732 5732 5733 5733 5733 5733 5734 5734 5734 5735 5735 5735 5735 5735 5735 5735 5736 5735 5735 5735 5735 5735 5734 5734 5734 5734 5734 5734 5734 5733 5733 5734 5734 5733 5732 5731 5730 5729 5729 5728 5726 5725 5724 5724
5713 5715 5716 5717 5718 5719 5720 5721 5721 5722 5723 5723 5724 5725 5725 5726 5726 5728 5728 5728 5728 5728 5729 5728 5729 5729 5730 5730 5731 5731 5731 5731 5731 5731 5731 5731 5730 5730 5730 5729 5729 5729 5728 5727 5727 5727 5727 5727 5726 5726 5726 5726 5726 5724 5723 5723 5721 5720 5720 5719 5717 5716 5715
5711 5712 5713 5715 5715 5715 5715 5716 5717 5718 5719 5719 5720 5721 5722 5722 5723 5724 5724 5723 5723 5724 5724 5724 5724 5725 5726 5726 5726 5726 5726 5726 5726 5725 5725 5725 5724 5724 5724 5723 5724 5724 5722 5721 5720 5720 5720 5719 5719 5719 5718 5717 5717 5716 5715 5715 5713 5712 5711 5710 5709 5708 5707
5707 5709 5710 5712 5712 5712 5712 5712 5713 5714 5715 5716 5716 5717 5718 5718 5718 5719 5719 5719 5719 5719 5719 5720 5720 5721 5721 5721 5721 5721 5721 5721 5720 5720 5719 5719 5718 5718 5717 5716 5717 5718 5716 5714 5714 5713 5713 5712 5712 5711 5710 5709 5708 5707 5706 5706 5705 5704 5703 5702 5701 5700 5699
5704 5705 5706 5708 5708 5708 5709 5709 5710 5710 5711 5712 5712 5713 5713 5714 5714 5714 5714 5714 5714 5714 5714 5714 5715 5715 5715 5715 5715 5715 5715 5715 5715 5714 5714 5713 5712 5711 5711 5710 5710 5710 5709 5707 5707 5706 5705 5704 5703 5703 5701 5700 5699 5698 5697 5697 5696 5695 5694 5693 5692 5691 5691
5699 5700 5701 5703 5704 5704 5705 5705 5705 5706 5707 5707 5708 5708 5709 5709 5709 5709 5709 5709 5709 5709 5709 5709 5709 5709 5709 5709 5709 5709 5709 5709 5709 5708 5708 5707 5706 5705 5705 5704 5703 5703 5701 5700 5699 5698 5697 5696 5694 5693 5692 5690 5689 5688 5687 5687 5686 5685 5684 5684 5683 5682 5681